"read_dt","SO2 (ppb)","flags","PMT voltage (V)","lamp voltage (V)","lamp intensity (Hz)","internal temp (C)","react chamber temp (C)","sample flow (l/min)","pres (mmHg)","SO2 bkg (ppb)","SO2 coefficient"
2016-03-11 00:00:00,1853E-3,5C000400,-0724,0836,12208,026.7,045.4,0.258,757.3,01.16,0.508
2016-03-11 00:01:00,1761E-3,5C000400,-0724,0836,12080,026.7,045.4,0.258,757.3,01.16,0.508
2016-03-11 00:02:00,1836E-3,5C000400,-0724,0836,12015,026.7,045.4,0.258,757.3,01.16,0.508
2016-03-11 00:03:00,1738E-3,5C000400,-0724,0836,12176,026.6,045.4,0.258,757.3,01.16,0.508
2016-03-11 00:04:00,1752E-3,5C000400,-0724,0836,12010,026.6,045.4,0.258,757.3,01.16,0.508
2016-03-11 00:05:00,1786E-3,5C000400,-0724,0835,12108,026.6,045.4,0.258,757.3,01.16,0.508
2016-03-11 00:06:00,1689E-3,5C000400,-0724,0836,12090,026.6,045.4,0.258,757.3,01.16,0.508
2016-03-11 00:07:00,1850E-3,5C000400,-0724,0836,12175,026.6,045.4,0.258,757.3,01.16,0.508
2016-03-11 00:08:00,1832E-3,5C000400,-0724,0836,12106,026.6,045.4,0.258,757.3,01.16,0.508
2016-03-11 00:09:00,1890E-3,5C000400,-0724,0836,12249,026.7,045.4,0.258,757.3,01.16,0.508
2016-03-11 00:10:00,1831E-3,5C000400,-0724,0836,12073,026.6,045.4,0.258,757.3,01.16,0.508
2016-03-11 00:11:00,1846E-3,5C000400,-0724,0836,12072,026.7,045.4,0.258,757.3,01.16,0.508
2016-03-11 00:12:00,1833E-3,5C000400,-0724,0836,12107,026.6,045.4,0.257,757.3,01.16,0.508
2016-03-11 00:13:00,1835E-3,5C000400,-0724,0836,12148,026.6,045.4,0.258,757.3,01.16,0.508
2016-03-11 00:14:00,1731E-3,5C000400,-0724,0835,12255,026.6,045.4,0.258,757.3,01.16,0.508
2016-03-11 00:15:00,1781E-3,5C000400,-0724,0836,12107,026.6,045.4,0.258,757.3,01.16,0.508
2016-03-11 00:16:00,1767E-3,5C000400,-0724,0836,12164,026.7,045.4,0.258,757.3,01.16,0.508
2016-03-11 00:17:00,1783E-3,5C000400,-0724,0837,12083,026.7,045.4,0.257,757.3,01.16,0.508
2016-03-11 00:18:00,1876E-3,5C000400,-0724,0835,12150,026.6,045.4,0.258,757.3,01.16,0.508
2016-03-11 00:19:00,1920E-3,5C000400,-0724,0836,12100,026.7,045.4,0.258,757.3,01.16,0.508
2016-03-11 00:20:00,1797E-3,5C000400,-0724,0836,12197,026.6,045.4,0.258,757.3,01.16,0.508
2016-03-11 00:21:00,1712E-3,5C000400,-0724,0836,12182,026.6,045.4,0.258,757.3,01.16,0.508
2016-03-11 00:22:00,1773E-3,5C000400,-0724,0836,12207,026.7,045.4,0.257,757.3,01.16,0.508
2016-03-11 00:23:00,1731E-3,5C000400,-0724,0835,12131,026.7,045.4,0.258,757.3,01.16,0.508
2016-03-11 00:24:00,1745E-3,5C000400,-0724,0835,12175,026.6,045.4,0.258,757.3,01.16,0.508
2016-03-11 00:25:00,1698E-3,5C000400,-0724,0836,12179,026.6,045.4,0.258,757.3,01.16,0.508
2016-03-11 00:26:00,1708E-3,5C000400,-0724,0836,12093,026.7,045.4,0.258,757.3,01.16,0.508
2016-03-11 00:27:00,1846E-3,5C000400,-0724,0835,12104,026.7,045.4,0.258,757.4,01.16,0.508
2016-03-11 00:28:00,1900E-3,5C000400,-0724,0836,12185,026.7,045.4,0.258,757.4,01.16,0.508
2016-03-11 00:29:00,1736E-3,5C000400,-0724,0836,12074,026.6,045.4,0.258,757.4,01.16,0.508
2016-03-11 00:30:00,1722E-3,5C000400,-0724,0836,12077,026.6,045.4,0.258,757.1,01.16,0.508
2016-03-11 00:31:00,1764E-3,5C000400,-0724,0836,12110,026.7,045.4,0.258,757.2,01.16,0.508
2016-03-11 00:32:00,1834E-3,5C000400,-0724,0836,12088,026.7,045.4,0.258,757.4,01.16,0.508
2016-03-11 00:33:00,1711E-3,5C000400,-0724,0836,12241,026.7,045.4,0.258,757.4,01.16,0.508
2016-03-11 00:34:00,1817E-3,5C000400,-0724,0836,12087,026.7,045.4,0.257,757.4,01.16,0.508
2016-03-11 00:35:00,1749E-3,5C000400,-0724,0836,12244,026.7,045.4,0.258,757.4,01.16,0.508
2016-03-11 00:36:00,1852E-3,5C000400,-0724,0837,11931,026.6,045.4,0.257,757.4,01.16,0.508
2016-03-11 00:37:00,1772E-3,5C000400,-0724,0836,12088,026.7,045.4,0.258,757.4,01.16,0.508
2016-03-11 00:38:00,1724E-3,5C000400,-0724,0836,12069,026.7,045.4,0.257,757.4,01.16,0.508
2016-03-11 00:39:00,1817E-3,5C000400,-0724,0835,12026,026.7,045.4,0.258,757.4,01.16,0.508
2016-03-11 00:40:00,1775E-3,5C000400,-0724,0836,12063,026.6,045.4,0.257,757.4,01.16,0.508
2016-03-11 00:41:00,1810E-3,5C000400,-0724,0836,12212,026.6,045.4,0.258,757.4,01.16,0.508
2016-03-11 00:42:00,1762E-3,5C000400,-0724,0836,12157,026.6,045.4,0.258,757.4,01.16,0.508
2016-03-11 00:43:00,1699E-3,5C000400,-0724,0836,12160,026.7,045.4,0.258,757.4,01.16,0.508
2016-03-11 00:44:00,1779E-3,5C000400,-0724,0837,12186,026.7,045.4,0.258,757.4,01.16,0.508
2016-03-11 00:45:00,1653E-3,5C000400,-0724,0836,12104,026.7,045.4,0.258,757.4,01.16,0.508
2016-03-11 00:46:00,1966E-3,5C000400,-0724,0836,12044,026.7,045.4,0.257,757.4,01.16,0.508
2016-03-11 00:47:00,1948E-3,5C000400,-0724,0836,12150,026.7,045.4,0.258,757.4,01.16,0.508
2016-03-11 00:48:00,1883E-3,5C000400,-0724,0836,12162,026.7,045.4,0.258,757.4,01.16,0.508
2016-03-11 00:49:00,1697E-3,5C000400,-0724,0836,12001,026.7,045.4,0.258,757.4,01.16,0.508
2016-03-11 00:50:00,1672E-3,5C000400,-0724,0836,12032,026.7,045.4,0.258,757.4,01.16,0.508
2016-03-11 00:51:00,1831E-3,5C000400,-0724,0836,12184,026.7,045.4,0.257,757.4,01.16,0.508
2016-03-11 00:52:00,1764E-3,5C000400,-0724,0836,12136,026.7,045.4,0.258,757.4,01.16,0.508
2016-03-11 00:53:00,1932E-3,5C000400,-0724,0836,12126,026.7,045.4,0.258,757.4,01.16,0.508
2016-03-11 00:54:00,1835E-3,5C000400,-0724,0836,12256,026.7,045.4,0.258,757.4,01.16,0.508
2016-03-11 00:55:00,1793E-3,5C000400,-0724,0836,12212,026.7,045.4,0.258,757.4,01.16,0.508
2016-03-11 00:56:00,1793E-3,5C000400,-0724,0836,11988,026.7,045.4,0.258,757.4,01.16,0.508
2016-03-11 00:57:00,1775E-3,5C000400,-0724,0836,12069,026.7,045.4,0.258,757.3,01.16,0.508
2016-03-11 00:58:00,1789E-3,5C000400,-0724,0837,12186,026.7,045.4,0.258,757.3,01.16,0.508
2016-03-11 00:59:00,1773E-3,5C000400,-0724,0836,12297,026.7,045.4,0.258,757.3,01.16,0.508
2016-03-11 01:00:00,1800E-3,5C000400,-0724,0836,12086,026.7,045.4,0.258,757.3,01.16,0.508
2016-03-11 01:01:00,1793E-3,5C000400,-0724,0836,12216,026.7,045.4,0.258,757.3,01.16,0.508
2016-03-11 01:02:00,1780E-3,5C000400,-0724,0835,12090,026.7,045.4,0.258,757.3,01.16,0.508
2016-03-11 01:03:00,1771E-3,5C000400,-0724,0837,11959,026.7,045.4,0.258,757.3,01.16,0.508
2016-03-11 01:04:00,1709E-3,5C000400,-0724,0835,12100,026.7,045.4,0.258,757.3,01.16,0.508
2016-03-11 01:05:00,1794E-3,5C000400,-0724,0836,12125,026.7,045.4,0.258,757.3,01.16,0.508
2016-03-11 01:06:00,1786E-3,5C000400,-0724,0836,12120,026.7,045.4,0.258,757.3,01.16,0.508
2016-03-11 01:07:00,1791E-3,5C000400,-0724,0836,11953,026.7,045.4,0.257,757.3,01.16,0.508
2016-03-11 01:08:00,1836E-3,5C000400,-0724,0837,12043,026.7,045.4,0.258,757.3,01.16,0.508
2016-03-11 01:09:00,1842E-3,5C000400,-0724,0836,12057,026.7,045.4,0.257,757.3,01.16,0.508
2016-03-11 01:10:00,1706E-3,5C000400,-0724,0836,12053,026.7,045.4,0.258,757.3,01.16,0.508
2016-03-11 01:11:00,1788E-3,5C000400,-0724,0836,12198,026.7,045.4,0.258,757.3,01.16,0.508
2016-03-11 01:12:00,1747E-3,5C000400,-0724,0836,12094,026.7,045.4,0.258,757.3,01.16,0.508
2016-03-11 01:13:00,1788E-3,5C000400,-0724,0836,12151,026.7,045.4,0.258,757.3,01.16,0.508
2016-03-11 01:14:00,1874E-3,5C000400,-0724,0836,12201,026.7,045.4,0.258,757.3,01.16,0.508
2016-03-11 01:15:00,1781E-3,5C000400,-0724,0836,12122,026.7,045.4,0.258,757.3,01.16,0.508
2016-03-11 01:16:00,1741E-3,5C000400,-0724,0836,12125,026.7,045.4,0.257,757.3,01.16,0.508
2016-03-11 01:17:00,1858E-3,5C000400,-0724,0836,12203,026.7,045.4,0.258,757.3,01.16,0.508
2016-03-11 01:18:00,1755E-3,5C000400,-0724,0836,12308,026.7,045.4,0.258,757.3,01.16,0.508
2016-03-11 01:19:00,1695E-3,5C000400,-0724,0836,12195,026.8,045.4,0.258,757.3,01.16,0.508
2016-03-11 01:20:00,1707E-3,5C000400,-0724,0836,12135,026.7,045.4,0.257,757.3,01.16,0.508
2016-03-11 01:21:00,1689E-3,5C000400,-0724,0836,12161,026.7,045.4,0.258,757.3,01.16,0.508
2016-03-11 01:22:00,1767E-3,5C000400,-0724,0837,12103,026.8,045.4,0.257,757.4,01.16,0.508
2016-03-11 01:23:00,1842E-3,5C000400,-0724,0836,12301,026.7,045.4,0.258,757.4,01.16,0.508
2016-03-11 01:24:00,1828E-3,5C000400,-0724,0836,12076,026.8,045.4,0.258,757.4,01.16,0.508
2016-03-11 01:25:00,1789E-3,5C000400,-0724,0836,11978,026.8,045.4,0.258,757.4,01.16,0.508
2016-03-11 01:26:00,1709E-3,5C000400,-0724,0836,12236,026.7,045.4,0.258,757.4,01.16,0.508
2016-03-11 01:27:00,1750E-3,5C000400,-0724,0836,12135,026.8,045.4,0.258,757.4,01.16,0.508
2016-03-11 01:28:00,1778E-3,5C000400,-0724,0836,12063,026.8,045.4,0.257,757.4,01.16,0.508
2016-03-11 01:29:00,1823E-3,5C000400,-0724,0836,12202,026.8,045.4,0.258,757.4,01.16,0.508
2016-03-11 01:30:00,1773E-3,5C000400,-0724,0836,12132,026.8,045.4,0.257,757.4,01.16,0.508
2016-03-11 01:31:00,1739E-3,5C000400,-0724,0835,12175,026.8,045.4,0.258,757.4,01.16,0.508
2016-03-11 01:32:00,1683E-3,5C000400,-0724,0836,12078,026.8,045.4,0.257,757.4,01.16,0.508
2016-03-11 01:33:00,1891E-3,5C000400,-0724,0835,12094,026.8,045.4,0.258,757.4,01.16,0.508
2016-03-11 01:34:00,1765E-3,5C000400,-0724,0837,12272,026.8,045.4,0.258,757.4,01.16,0.508
2016-03-11 01:35:00,1661E-3,5C000400,-0724,0836,12189,026.8,045.4,0.258,757.4,01.16,0.508
2016-03-11 01:36:00,1889E-3,5C000400,-0724,0836,12253,026.8,045.4,0.258,757.4,01.16,0.508
2016-03-11 01:37:00,1846E-3,5C000400,-0724,0837,12035,026.8,045.4,0.258,757.4,01.16,0.508
2016-03-11 01:38:00,1668E-3,5C000400,-0724,0836,12123,026.8,045.4,0.258,757.4,01.16,0.508
2016-03-11 01:39:00,1763E-3,5C000400,-0724,0836,12171,026.8,045.4,0.258,757.4,01.16,0.508
2016-03-11 01:40:00,1702E-3,5C000400,-0724,0836,12159,026.8,045.4,0.257,757.4,01.16,0.508
2016-03-11 01:41:00,1765E-3,5C000400,-0724,0836,12131,026.8,045.4,0.258,757.4,01.16,0.508
2016-03-11 01:42:00,1716E-3,5C000400,-0724,0836,12193,026.8,045.4,0.258,757.4,01.16,0.508
2016-03-11 01:43:00,1837E-3,5C000400,-0724,0837,12139,026.8,045.4,0.258,757.4,01.16,0.508
2016-03-11 01:44:00,1750E-3,5C000400,-0724,0836,12155,026.8,045.4,0.258,757.4,01.16,0.508
2016-03-11 01:45:00,1694E-3,5C000400,-0724,0836,12008,026.8,045.4,0.258,757.4,01.16,0.508
2016-03-11 01:46:00,1843E-3,5C000400,-0724,0835,12164,026.8,045.4,0.258,757.4,01.16,0.508
2016-03-11 01:47:00,1755E-3,5C000400,-0724,0836,11978,026.8,045.4,0.258,757.4,01.16,0.508
2016-03-11 01:48:00,1816E-3,5C000400,-0724,0835,12272,026.8,045.4,0.257,757.4,01.16,0.508
2016-03-11 01:49:00,1818E-3,5C000400,-0724,0836,12189,026.8,045.4,0.258,757.4,01.16,0.508
2016-03-11 01:50:00,1862E-3,5C000400,-0724,0836,12082,026.8,045.4,0.257,757.4,01.16,0.508
2016-03-11 01:51:00,1717E-3,5C000400,-0724,0837,11946,026.8,045.4,0.258,757.4,01.16,0.508
2016-03-11 01:52:00,1783E-3,5C000400,-0724,0836,12152,026.8,045.4,0.257,757.4,01.16,0.508
2016-03-11 01:53:00,1824E-3,5C000400,-0724,0836,12118,026.8,045.4,0.258,757.4,01.16,0.508
2016-03-11 01:54:00,1924E-3,5C000400,-0724,0836,12206,026.9,045.4,0.258,757.4,01.16,0.508
2016-03-11 01:55:00,1900E-3,5C000400,-0724,0836,12292,026.9,045.4,0.257,757.4,01.16,0.508
2016-03-11 01:56:00,1903E-3,5C000400,-0724,0836,12166,026.9,045.4,0.257,757.4,01.16,0.508
2016-03-11 01:57:00,1775E-3,5C000400,-0724,0836,12060,026.9,045.4,0.258,757.4,01.16,0.508
2016-03-11 01:58:00,1768E-3,5C000400,-0724,0837,12165,026.9,045.4,0.257,757.4,01.16,0.508
2016-03-11 01:59:00,1870E-3,5C000400,-0724,0837,12194,026.9,045.4,0.258,757.4,01.16,0.508
2016-03-11 02:00:00,1860E-3,5C000400,-0724,0836,12234,026.9,045.4,0.257,757.4,01.16,0.508
2016-03-11 02:01:00,1810E-3,5C000400,-0724,0836,12176,026.9,045.4,0.258,757.4,01.16,0.508
2016-03-11 02:02:00,1736E-3,5C000400,-0724,0836,12159,026.9,045.4,0.257,757.4,01.16,0.508
2016-03-11 02:03:00,1826E-3,5C000400,-0724,0836,11965,026.9,045.4,0.257,757.4,01.16,0.508
2016-03-11 02:04:00,1916E-3,5C000400,-0724,0837,12222,026.9,045.4,0.257,757.3,01.16,0.508
2016-03-11 02:05:00,1810E-3,5C000400,-0724,0836,12171,026.9,045.4,0.257,757.3,01.16,0.508
2016-03-11 02:06:00,1814E-3,5C000400,-0724,0836,12063,026.9,045.4,0.257,757.4,01.16,0.508
2016-03-11 02:07:00,1786E-3,5C000400,-0724,0837,12161,026.9,045.4,0.257,757.4,01.16,0.508
2016-03-11 02:08:00,1705E-3,5C000400,-0724,0836,12082,026.9,045.4,0.257,757.3,01.16,0.508
2016-03-11 02:09:00,1627E-3,5C000400,-0724,0836,12074,026.9,045.4,0.258,757.3,01.16,0.508
2016-03-11 02:10:00,1809E-3,5C000400,-0724,0836,12067,026.9,045.4,0.257,757.3,01.16,0.508
2016-03-11 02:11:00,1804E-3,5C000400,-0724,0836,12066,026.9,045.4,0.257,757.3,01.16,0.508
2016-03-11 02:12:00,1921E-3,5C000400,-0724,0836,12154,026.9,045.4,0.257,757.3,01.16,0.508
2016-03-11 02:13:00,1777E-3,5C000400,-0724,0836,12013,027.0,045.4,0.257,757.3,01.16,0.508
2016-03-11 02:14:00,1733E-3,5C000400,-0724,0836,12232,026.9,045.4,0.258,757.3,01.16,0.508
2016-03-11 02:15:00,1820E-3,5C000400,-0724,0836,12198,026.9,045.4,0.257,757.3,01.16,0.508
2016-03-11 02:16:00,1816E-3,5C000400,-0724,0836,12093,026.9,045.4,0.257,757.3,01.16,0.508
2016-03-11 02:17:00,1662E-3,5C000400,-0724,0836,12175,026.9,045.4,0.257,757.3,01.16,0.508
2016-03-11 02:18:00,1870E-3,5C000400,-0724,0836,12132,026.9,045.4,0.257,757.4,01.16,0.508
2016-03-11 02:19:00,1948E-3,5C000400,-0724,0836,12192,026.9,045.4,0.258,757.4,01.16,0.508
2016-03-11 02:20:00,1838E-3,5C000400,-0724,0836,12161,027.0,045.4,0.257,757.4,01.16,0.508
2016-03-11 02:21:00,1885E-3,5C000400,-0724,0836,12093,026.9,045.4,0.257,757.4,01.16,0.508
2016-03-11 02:22:00,1841E-3,5C000400,-0724,0836,12068,026.9,045.4,0.257,757.4,01.16,0.508
2016-03-11 02:23:00,1753E-3,5C000400,-0724,0836,12049,026.9,045.4,0.257,757.4,01.16,0.508
2016-03-11 02:24:00,1911E-3,5C000400,-0724,0836,12065,027.0,045.4,0.257,757.4,01.16,0.508
2016-03-11 02:25:00,1736E-3,5C000400,-0724,0836,12078,027.0,045.4,0.257,757.4,01.16,0.508
2016-03-11 02:26:00,1843E-3,5C000400,-0724,0836,12149,027.0,045.4,0.257,757.4,01.16,0.508
2016-03-11 02:27:00,1855E-3,5C000400,-0724,0835,12068,027.0,045.4,0.258,757.4,01.16,0.508
2016-03-11 02:28:00,1744E-3,5C000400,-0724,0836,12185,027.0,045.4,0.257,757.4,01.16,0.508
2016-03-11 02:29:00,1968E-3,5C000400,-0724,0836,11991,027.0,045.4,0.257,757.4,01.16,0.508
2016-03-11 02:30:00,1842E-3,5C000400,-0724,0836,12129,027.0,045.4,0.257,757.4,01.16,0.508
2016-03-11 02:31:00,1833E-3,5C000400,-0724,0836,11993,027.0,045.4,0.257,757.4,01.16,0.508
2016-03-11 02:32:00,1687E-3,5C000400,-0724,0835,12170,027.0,045.4,0.257,757.4,01.16,0.508
2016-03-11 02:33:00,1821E-3,5C000400,-0724,0835,12071,027.0,045.4,0.257,757.4,01.16,0.508
2016-03-11 02:34:00,1794E-3,5C000400,-0724,0837,12106,027.0,045.4,0.257,757.4,01.16,0.508
2016-03-11 02:35:00,1795E-3,5C000400,-0724,0836,12130,027.0,045.4,0.257,757.4,01.16,0.508
2016-03-11 02:36:00,1906E-3,5C000400,-0724,0835,12140,027.0,045.4,0.257,757.4,01.16,0.508
2016-03-11 02:37:00,1804E-3,5C000400,-0724,0836,12104,027.0,045.4,0.257,757.4,01.16,0.508
2016-03-11 02:38:00,1849E-3,5C000400,-0724,0836,12107,027.0,045.4,0.257,757.4,01.16,0.508
2016-03-11 02:39:00,1746E-3,5C000400,-0724,0835,12110,027.0,045.4,0.257,757.4,01.16,0.508
2016-03-11 02:40:00,1844E-3,5C000400,-0724,0836,12264,027.0,045.4,0.257,757.4,01.16,0.508
2016-03-11 02:41:00,1783E-3,5C000400,-0724,0835,12061,027.0,045.4,0.257,757.4,01.16,0.508
2016-03-11 02:42:00,1807E-3,5C000400,-0724,0836,11984,027.0,045.4,0.257,757.4,01.16,0.508
2016-03-11 02:43:00,1861E-3,5C000400,-0724,0836,11973,027.0,045.4,0.257,757.4,01.16,0.508
2016-03-11 02:44:00,1918E-3,5C000400,-0724,0836,12037,027.0,045.4,0.258,757.4,01.16,0.508
2016-03-11 02:45:00,1725E-3,5C000400,-0724,0836,12116,027.0,045.4,0.257,757.4,01.16,0.508
2016-03-11 02:46:00,1877E-3,5C000400,-0724,0836,12127,027.0,045.4,0.257,757.4,01.16,0.508
2016-03-11 02:47:00,1956E-3,5C000400,-0724,0836,12114,027.0,045.4,0.257,757.4,01.16,0.508
2016-03-11 02:48:00,1691E-3,5C000400,-0724,0836,12080,027.0,045.4,0.257,757.4,01.16,0.508
2016-03-11 02:49:00,1904E-3,5C000400,-0724,0836,12090,027.0,045.4,0.257,757.4,01.16,0.508
2016-03-11 02:50:00,1886E-3,5C000400,-0724,0836,12139,027.1,045.4,0.257,757.4,01.16,0.508
2016-03-11 02:51:00,1749E-3,5C000400,-0724,0836,12059,027.1,045.4,0.257,757.4,01.16,0.508
2016-03-11 02:52:00,1734E-3,5C000400,-0724,0836,12167,027.1,045.4,0.257,757.4,01.16,0.508
2016-03-11 02:53:00,1689E-3,5C000400,-0724,0836,12149,027.1,045.4,0.257,757.4,01.16,0.508
2016-03-11 02:54:00,1750E-3,5C000400,-0724,0836,12159,027.1,045.4,0.257,757.4,01.16,0.508
2016-03-11 02:55:00,1733E-3,5C000400,-0724,0837,12200,027.1,045.4,0.257,757.4,01.16,0.508
2016-03-11 02:56:00,1765E-3,5C000400,-0724,0837,12185,027.1,045.4,0.257,757.4,01.16,0.508
2016-03-11 02:57:00,1760E-3,5C000400,-0724,0837,12193,027.1,045.4,0.257,757.4,01.16,0.508
2016-03-11 02:58:00,1745E-3,5C000400,-0724,0837,12071,027.1,045.4,0.257,757.4,01.16,0.508
2016-03-11 02:59:00,1716E-3,5C000400,-0724,0836,12107,027.1,045.4,0.257,757.4,01.16,0.508
2016-03-11 03:00:00,1883E-3,5C000400,-0724,0836,12170,027.1,045.4,0.257,757.4,01.16,0.508
2016-03-11 03:01:00,1798E-3,5C000400,-0724,0836,12207,027.1,045.4,0.257,757.4,01.16,0.508
2016-03-11 03:02:00,1940E-3,5C000400,-0724,0836,12108,027.1,045.4,0.257,757.4,01.16,0.508
2016-03-11 03:03:00,1859E-3,5C000400,-0724,0835,12221,027.1,045.4,0.257,757.4,01.16,0.508
2016-03-11 03:04:00,1771E-3,5C000400,-0724,0836,12208,027.1,045.4,0.257,757.4,01.16,0.508
2016-03-11 03:05:00,1913E-3,5C000400,-0724,0836,12028,027.2,045.4,0.257,757.4,01.16,0.508
2016-03-11 03:06:00,1865E-3,5C000400,-0724,0837,12219,027.1,045.4,0.257,757.4,01.16,0.508
2016-03-11 03:07:00,1801E-3,5C000400,-0724,0836,12166,027.2,045.4,0.257,757.4,01.16,0.508
2016-03-11 03:08:00,1688E-3,5C000400,-0724,0836,12271,027.1,045.4,0.257,757.4,01.16,0.508
2016-03-11 03:09:00,1819E-3,5C000400,-0724,0836,12045,027.2,045.4,0.257,757.4,01.16,0.508
2016-03-11 03:10:00,1861E-3,5C000400,-0724,0836,12083,027.1,045.4,0.257,757.4,01.16,0.508
2016-03-11 03:11:00,1686E-3,5C000400,-0724,0836,12214,027.1,045.4,0.257,757.4,01.16,0.508
2016-03-11 03:12:00,1694E-3,5C000400,-0724,0836,12007,027.2,045.4,0.257,757.4,01.16,0.508
2016-03-11 03:13:00,1904E-3,5C000400,-0724,0836,12096,027.2,045.4,0.256,757.4,01.16,0.508
2016-03-11 03:14:00,1850E-3,5C000400,-0724,0836,12074,027.2,045.4,0.257,757.4,01.16,0.508
2016-03-11 03:15:00,1718E-3,5C000400,-0724,0835,12112,027.2,045.4,0.257,757.4,01.16,0.508
2016-03-11 03:16:00,1745E-3,5C000400,-0724,0836,12142,027.2,045.4,0.257,757.4,01.16,0.508
2016-03-11 03:17:00,1716E-3,5C000400,-0724,0836,12120,027.2,045.4,0.257,757.4,01.16,0.508
2016-03-11 03:18:00,1817E-3,5C000400,-0724,0836,12228,027.2,045.4,0.257,757.4,01.16,0.508
2016-03-11 03:19:00,1870E-3,5C000400,-0724,0836,12190,027.2,045.4,0.257,757.4,01.16,0.508
2016-03-11 03:20:00,1783E-3,5C000400,-0724,0836,12094,027.2,045.4,0.257,757.4,01.16,0.508
2016-03-11 03:21:00,1765E-3,5C000400,-0724,0836,12011,027.2,045.4,0.257,757.4,01.16,0.508
2016-03-11 03:22:00,1700E-3,5C000400,-0724,0836,12063,027.2,045.4,0.257,757.4,01.16,0.508
2016-03-11 03:23:00,1818E-3,5C000400,-0724,0836,12065,027.2,045.4,0.257,757.4,01.16,0.508
2016-03-11 03:24:00,1834E-3,5C000400,-0724,0837,12010,027.2,045.4,0.257,757.4,01.16,0.508
2016-03-11 03:25:00,1789E-3,5C000400,-0724,0836,12010,027.2,045.4,0.256,757.4,01.16,0.508
2016-03-11 03:26:00,1641E-3,5C000400,-0724,0836,12209,027.2,045.4,0.257,757.4,01.16,0.508
2016-03-11 03:27:00,1773E-3,5C000400,-0724,0836,12012,027.2,045.4,0.257,757.4,01.16,0.508
2016-03-11 03:28:00,1728E-3,5C000400,-0724,0836,12154,027.3,045.4,0.257,757.4,01.16,0.508
2016-03-11 03:29:00,1771E-3,5C000400,-0724,0836,12188,027.3,045.4,0.257,757.4,01.16,0.508
2016-03-11 03:30:00,1715E-3,5C000400,-0724,0836,12078,027.3,045.4,0.257,757.4,01.16,0.508
2016-03-11 03:31:00,1708E-3,5C000400,-0724,0836,12156,027.3,045.4,0.257,757.4,01.16,0.508
2016-03-11 03:32:00,1691E-3,5C000400,-0724,0835,12078,027.3,045.4,0.257,757.4,01.16,0.508
2016-03-11 03:33:00,1800E-3,5C000400,-0724,0836,12239,027.3,045.4,0.256,757.4,01.16,0.508
2016-03-11 03:34:00,1831E-3,5C000400,-0724,0836,12173,027.3,045.4,0.257,757.4,01.16,0.508
2016-03-11 03:35:00,1677E-3,5C000400,-0724,0836,12090,027.3,045.4,0.256,757.4,01.16,0.508
2016-03-11 03:36:00,1698E-3,5C000400,-0724,0836,12092,027.3,045.4,0.257,757.4,01.16,0.508
2016-03-11 03:37:00,1773E-3,5C000400,-0724,0836,12136,027.3,045.4,0.257,757.4,01.16,0.508
2016-03-11 03:38:00,1746E-3,5C000400,-0724,0836,12199,027.3,045.4,0.256,757.4,01.16,0.508
2016-03-11 03:39:00,1787E-3,5C000400,-0724,0837,12255,027.3,045.4,0.257,757.4,01.16,0.508
2016-03-11 03:40:00,1714E-3,5C000400,-0724,0836,12155,027.3,045.4,0.256,757.4,01.16,0.508
2016-03-11 03:41:00,1700E-3,5C000400,-0724,0836,12240,027.3,045.4,0.257,757.5,01.16,0.508
2016-03-11 03:42:00,1759E-3,5C000400,-0724,0836,12100,027.3,045.4,0.257,757.4,01.16,0.508
2016-03-11 03:43:00,1904E-3,5C000400,-0724,0836,12184,027.3,045.4,0.257,757.4,01.16,0.508
2016-03-11 03:44:00,1707E-3,5C000400,-0724,0836,12044,027.3,045.4,0.257,757.4,01.16,0.508
2016-03-11 03:45:00,1826E-3,5C000400,-0724,0836,12116,027.3,045.4,0.257,757.4,01.16,0.508
2016-03-11 03:46:00,1728E-3,5C000400,-0724,0836,12069,027.4,045.4,0.256,757.5,01.16,0.508
2016-03-11 03:47:00,1716E-3,5C000400,-0724,0836,12120,027.3,045.4,0.257,757.4,01.16,0.508
2016-03-11 03:48:00,1736E-3,5C000400,-0724,0836,12208,027.4,045.4,0.256,757.5,01.16,0.508
2016-03-11 03:49:00,1801E-3,5C000400,-0724,0836,12284,027.3,045.4,0.257,757.5,01.16,0.508
2016-03-11 03:50:00,1935E-3,5C000400,-0724,0837,12177,027.4,045.4,0.256,757.5,01.16,0.508
2016-03-11 03:51:00,1797E-3,5C000400,-0724,0837,12237,027.3,045.4,0.257,757.5,01.16,0.508
2016-03-11 03:52:00,1929E-3,5C000400,-0724,0836,12060,027.3,045.4,0.256,757.5,01.16,0.508
2016-03-11 03:53:00,1786E-3,5C000400,-0724,0836,12088,027.4,045.4,0.256,757.5,01.16,0.508
2016-03-11 03:54:00,1929E-3,5C000400,-0724,0836,12290,027.4,045.4,0.257,757.5,01.16,0.508
2016-03-11 03:55:00,1733E-3,5C000400,-0724,0836,12017,027.4,045.4,0.256,757.5,01.16,0.508
2016-03-11 03:56:00,1810E-3,5C000400,-0724,0836,12277,027.4,045.4,0.257,757.5,01.16,0.508
2016-03-11 03:57:00,1762E-3,5C000400,-0724,0836,12035,027.4,045.4,0.256,757.5,01.16,0.508
2016-03-11 03:58:00,1734E-3,5C000400,-0724,0836,12108,027.4,045.4,0.257,757.5,01.16,0.508
2016-03-11 03:59:00,1721E-3,5C000400,-0724,0836,12174,027.4,045.4,0.256,757.5,01.16,0.508
2016-03-11 04:00:00,1765E-3,5C000400,-0724,0835,12295,027.4,045.4,0.256,757.5,01.16,0.508
2016-03-11 04:01:00,1788E-3,5C000400,-0724,0837,12096,027.4,045.4,0.256,757.5,01.16,0.508
2016-03-11 04:02:00,1665E-3,5C000400,-0724,0836,12103,027.4,045.4,0.256,757.5,01.16,0.508
2016-03-11 04:03:00,1704E-3,5C000400,-0724,0837,12058,027.4,045.4,0.257,757.5,01.16,0.508
2016-03-11 04:04:00,1816E-3,5C000400,-0724,0836,12142,027.4,045.4,0.256,757.5,01.16,0.508
2016-03-11 04:05:00,1826E-3,5C000400,-0724,0835,12032,027.4,045.4,0.256,757.5,01.16,0.508
2016-03-11 04:06:00,1830E-3,5C000400,-0724,0836,12122,027.4,045.4,0.257,757.5,01.16,0.508
2016-03-11 04:07:00,1730E-3,5C000400,-0724,0835,12198,027.4,045.4,0.256,757.5,01.16,0.508
2016-03-11 04:08:00,1755E-3,5C000400,-0724,0836,12194,027.4,045.4,0.257,757.5,01.16,0.508
2016-03-11 04:09:00,1716E-3,5C000400,-0724,0836,12183,027.4,045.4,0.256,757.5,01.16,0.508
2016-03-11 04:10:00,1818E-3,5C000400,-0724,0836,12062,027.5,045.4,0.256,757.5,01.16,0.508
2016-03-11 04:11:00,1793E-3,5C000400,-0724,0836,12101,027.5,045.4,0.257,757.5,01.16,0.508
2016-03-11 04:12:00,1883E-3,5C000400,-0724,0837,12052,027.4,045.4,0.256,757.5,01.16,0.508
2016-03-11 04:13:00,1798E-3,5C000400,-0724,0837,12063,027.4,045.4,0.257,757.5,01.16,0.508
2016-03-11 04:14:00,1867E-3,5C000400,-0724,0836,12113,027.5,045.4,0.256,757.5,01.16,0.508
2016-03-11 04:15:00,1862E-3,5C000400,-0724,0836,12220,027.5,045.4,0.256,757.5,01.16,0.508
2016-03-11 04:16:00,1731E-3,5C000400,-0724,0836,12090,027.5,045.4,0.256,757.5,01.16,0.508
2016-03-11 04:17:00,1676E-3,5C000400,-0724,0836,12113,027.5,045.4,0.256,757.5,01.16,0.508
2016-03-11 04:18:00,1858E-3,5C000400,-0724,0836,12151,027.5,045.4,0.256,757.5,01.16,0.508
2016-03-11 04:19:00,1671E-3,5C000400,-0724,0836,12133,027.5,045.4,0.257,757.5,01.16,0.508
2016-03-11 04:20:00,1973E-3,5C000400,-0724,0836,12018,027.5,045.4,0.256,757.5,01.16,0.508